Stündliche Wetter Bolshoe Aleshino

Heute, 24 Januar, Sonntag

Zeit Temperatur Niederschläge Wind Luftdruck Luftfeuchtigkeit
00:00 0°C° 0 mm 3 m/S 746 mmHg 98%
01:00 0°C° 0 mm 3 m/S 746 mmHg 98%
02:00 0°C° 0 mm 3 m/S 746 mmHg 98%
03:00 0°C° 0 mm 3 m/S 746 mmHg 98%
04:00 0°C° 0 mm 3 m/S 746 mmHg 98%
05:00 0°C° 0 mm 3 m/S 746 mmHg 98%
06:00 0°C° 0 mm 3 m/S 745 mmHg 98%
07:00 0°C° 0 mm 3 m/S 746 mmHg 98%
08:00 0°C° 0 mm 3 m/S 746 mmHg 98%
09:00 0°C° 0 mm 3 m/S 746 mmHg 98%
10:00 -1°C° 0 mm 4 m/S 746 mmHg 98%
11:00 -1°C° 0 mm 4 m/S 746 mmHg 99%
12:00 -1°C° 0 mm 4 m/S 746 mmHg 99%
13:00 -1°C° 0 mm 4 m/S 746 mmHg 99%
14:00 -1°C° 0 mm 4 m/S 746 mmHg 99%
15:00 -1°C° 0 mm 4 m/S 746 mmHg 99%
16:00 -1°C° 0 mm 4 m/S 746 mmHg 98%
17:00 -1°C° 0 mm 4 m/S 746 mmHg 98%
18:00 -1°C° 0 mm 5 m/S 746 mmHg 98%
19:00 -1°C° 0 mm 5 m/S 746 mmHg 98%
20:00 -1°C° 0 mm 5 m/S 746 mmHg 98%
21:00 -1°C° 0 mm 5 m/S 746 mmHg 99%
22:00 -1°C° 0.1 mm 5 m/S 746 mmHg 97%
23:00 -1°C° 0.1 mm 5 m/S 746 mmHg 95%

Morgen, 25 Januar, Montag

Zeit Temperatur Niederschläge Wind Luftdruck Luftfeuchtigkeit
00:00 -2°C° 0.1 mm 6 m/S 746 mmHg 92%
01:00 -2°C° 0 mm 6 m/S 746 mmHg 90%
02:00 -2°C° 0 mm 6 m/S 746 mmHg 88%
03:00 -3°C° 0 mm 6 m/S 746 mmHg 86%
04:00 -3°C° 0 mm 6 m/S 745 mmHg 87%
05:00 -3°C° 0 mm 6 m/S 745 mmHg 89%
06:00 -3°C° 0 mm 6 m/S 745 mmHg 90%
07:00 -3°C° 0 mm 6 m/S 745 mmHg 91%
08:00 -3°C° 0 mm 6 m/S 745 mmHg 92%
09:00 -3°C° 0 mm 6 m/S 745 mmHg 93%
10:00 -3°C° 0.2 mm 6 m/S 745 mmHg 94%
11:00 -3°C° 0.2 mm 6 m/S 745 mmHg 95%
12:00 -3°C° 0.2 mm 6 m/S 745 mmHg 96%
13:00 -3°C° 0.2 mm 6 m/S 745 mmHg 95%
14:00 -3°C° 0.2 mm 6 m/S 745 mmHg 95%
15:00 -3°C° 0.2 mm 6 m/S 745 mmHg 95%
16:00 -2°C° 0.1 mm 5 m/S 745 mmHg 95%
17:00 -2°C° 0.1 mm 5 m/S 745 mmHg 96%
18:00 -2°C° 0.1 mm 5 m/S 745 mmHg 96%
19:00 -2°C° 0 mm 4 m/S 746 mmHg 96%
20:00 -1°C° 0 mm 4 m/S 746 mmHg 96%
21:00 -1°C° 0 mm 4 m/S 746 mmHg 96%
22:00 -1°C° 0 mm 4 m/S 746 mmHg 96%
23:00 -1°C° 0 mm 5 m/S 746 mmHg 96%

übermorgen, 26 Januar, Dienstag

Zeit Temperatur Niederschläge Wind Luftdruck Luftfeuchtigkeit
00:00 -1°C° 0 mm 5 m/S 746 mmHg 96%
01:00 -1°C° 0.1 mm 5 m/S 746 mmHg 96%
02:00 -2°C° 0.1 mm 5 m/S 746 mmHg 96%
03:00 -2°C° 0.1 mm 5 m/S 745 mmHg 96%
04:00 -2°C° 0.1 mm 5 m/S 745 mmHg 96%
05:00 -3°C° 0.1 mm 6 m/S 745 mmHg 97%
06:00 -3°C° 0.1 mm 6 m/S 744 mmHg 97%
07:00 -3°C° 0.2 mm 6 m/S 744 mmHg 96%
08:00 -3°C° 0.2 mm 7 m/S 744 mmHg 96%
09:00 -3°C° 0.2 mm 7 m/S 744 mmHg 95%
10:00 -3°C° 0.2 mm 7 m/S 743 mmHg 94%
11:00 -4°C° 0.2 mm 8 m/S 743 mmHg 93%
12:00 -4°C° 0.2 mm 8 m/S 743 mmHg 91%
13:00 -4°C° 0 mm 8 m/S 742 mmHg 92%
14:00 -2°C° 0 mm 7 m/S 742 mmHg 93%
15:00 -2°C° 0 mm 7 m/S 742 mmHg 94%
16:00 -2°C° 0 mm 7 m/S 741 mmHg 94%
17:00 -2°C° 0 mm 7 m/S 740 mmHg 93%
18:00 -2°C° 0 mm 7 m/S 740 mmHg 92%
19:00 -2°C° 1 mm 7 m/S 739 mmHg 94%
20:00 -4°C° 1 mm 8 m/S 738 mmHg 96%
21:00 -4°C° 1 mm 8 m/S 737 mmHg 97%
22:00 -2°C° 0.5 mm 8 m/S 737 mmHg 97%
23:00 -2°C° 0.5 mm 8 m/S 737 mmHg 97%

27 Januar, Mittwoch

Zeit Temperatur Niederschläge Wind Luftdruck Luftfeuchtigkeit
00:00 -2°C° 0.5 mm 7 m/S 737 mmHg 97%
01:00 -2°C° 0.1 mm 8 m/S 737 mmHg 94%
02:00 -4°C° 0.1 mm 8 m/S 737 mmHg 91%
03:00 -5°C° 0.1 mm 8 m/S 737 mmHg 88%
04:00 -5°C° 0 mm 8 m/S 737 mmHg 88%
05:00 -5°C° 0 mm 8 m/S 737 mmHg 88%
06:00 -6°C° 0 mm 9 m/S 737 mmHg 88%
07:00 -6°C° 0.1 mm 9 m/S 737 mmHg 88%
08:00 -6°C° 0.1 mm 9 m/S 738 mmHg 89%
09:00 -6°C° 0.1 mm 9 m/S 738 mmHg 90%
10:00 -6°C° 0.1 mm 9 m/S 738 mmHg 90%
11:00 -5°C° 0.1 mm 9 m/S 738 mmHg 90%
12:00 -5°C° 0.1 mm 10 m/S 738 mmHg 90%
13:00 -5°C° 0 mm 9 m/S 739 mmHg 88%
14:00 -5°C° 0 mm 9 m/S 739 mmHg 87%
15:00 -5°C° 0 mm 9 m/S 739 mmHg 85%
16:00 -5°C° 0 mm 9 m/S 739 mmHg 85%
17:00 -6°C° 0 mm 8 m/S 739 mmHg 86%
18:00 -6°C° 0 mm 8 m/S 739 mmHg 86%
19:00 -6°C° 0 mm 8 m/S 740 mmHg 87%
20:00 -6°C° 0 mm 7 m/S 740 mmHg 88%
21:00 -6°C° 0 mm 7 m/S 740 mmHg 89%
22:00 -6°C° 0 mm 7 m/S 740 mmHg 89%
23:00 -5°C° 0 mm 6 m/S 740 mmHg 89%

28 Januar, Donnerstag

Zeit Temperatur Niederschläge Wind Luftdruck Luftfeuchtigkeit
00:00 -5°C° 0 mm 6 m/S 741 mmHg 90%
01:00 -5°C° 0 mm 6 m/S 741 mmHg 90%
02:00 -5°C° 0 mm 6 m/S 741 mmHg 91%
03:00 -5°C° 0 mm 6 m/S 741 mmHg 92%
04:00 -6°C° 0 mm 5 m/S 741 mmHg 92%
05:00 -6°C° 0 mm 5 m/S 741 mmHg 92%
06:00 -5°C° 0 mm 4 m/S 741 mmHg 93%
07:00 -7°C° 0 mm 4 m/S 741 mmHg 93%
08:00 -7°C° 0 mm 4 m/S 741 mmHg 94%
09:00 -8°C° 0 mm 4 m/S 741 mmHg 94%
10:00 -6°C° 0 mm 3 m/S 741 mmHg 94%
11:00 -6°C° 0 mm 3 m/S 741 mmHg 94%
12:00 -5°C° 0 mm 3 m/S 741 mmHg 94%
13:00 -5°C° 0 mm 3 m/S 741 mmHg 94%
14:00 -5°C° 0 mm 3 m/S 741 mmHg 94%
15:00 -4°C° 0 mm 2 m/S 740 mmHg 94%
16:00 -4°C° 0 mm 2 m/S 741 mmHg 93%
17:00 -4°C° 0 mm 2 m/S 741 mmHg 93%
18:00 -2°C° 0 mm 1 m/S 741 mmHg 93%
19:00 -2°C° 0 mm 1 m/S 741 mmHg 93%
20:00 -3°C° 0 mm 1 m/S 741 mmHg 92%
21:00 -3°C° 0 mm 1 m/S 741 mmHg 92%

29 Januar, Freitag

Zeit Temperatur Niederschläge Wind Luftdruck Luftfeuchtigkeit
Mehr zeigen

Wir brauchen deine Erlaubnis

Meteoprog und unser Service Anbieter werden persönliche Daten aufbewahren, so wie Cookies, Geräte Bezeichnung oder ähnliche Technologien von deinem Gerät und Prozess, so wie Persönliche Daten Inhalte und Werbungen, genauso wie social Media und den Verkehr zu analysieren.

  • Aufbewahrung und/oder Zugang zu deiner Geräte Informationen.

    Cookies, Geräte Bezeichnung oder andere Informationen, können aufbewahrt oder Zugang zu deinem Gerät erhalten, für den Grund, der oben angegeben wird.

  • Personalisierte Werbung und Inhalte, Messungen, Einblick in das Publikum und Produkt Entwicklung.

    Werbungen und Inhalte können personalisiert werden, basierend auf ein Profil. Mehr Daten können besser personalisierte Werbungen und Inhalte hinzufügen. Werbung und Inhalte können gezeigt und gemessen werden. Einblicke über das Publikum, welche die Werbung gesehen haben und den Inhalt, können abgeleitet werden. So wie Daten können genutzt werden, um es zu verbessern oder die Benutzer Erfahrung zu verbessern das System und die Software.

Wenn du “Ich stimme zu” klickst, erlaubst du uns, die Cookies zu benutzen die Geräte Bezeichnung, den Web oder ähnliche Technologien zu benutzen. Deine Settings, können in deinem Gerät bei deinem Browser geändert werden.

Für den bestimmten Zweck, berechtigten Interessen beruhen darauf, mehr als auf den Inhalt. Du kannst mehr darüber in unseren Privaten und Cookie Politik lesen.